HB9CJD-1 Weather Reports


Display with metric or nautical units.
time (UTC)temp
F
wind
direction
speed
MPH
gust
MPH
rain 1hr
in
rain 24hr
in
rain mn
in
humidity
%
barometer
mb
20260506191127 50 0 0.0 0.0 0.00 0.00 0.00 78 1013.6
20260506190123 50 0 0.0 0.0 0.00 0.00 0.00 77 1013.4
20260506185120 50 0 0.0 0.0 0.00 0.00 0.00 78 1013.4
20260506184117 50 0 0.0 0.0 0.00 0.00 0.00 77 1013.5
20260506183114 51 0 0.0 0.0 0.00 0.00 0.00 78 1013.2
20260506182110 51 0 0.0 0.0 0.00 0.00 0.00 78 1013.3
20260506181108 51 0 0.0 0.0 0.00 0.00 0.00 80 1013.3
20260506180104 51 0 0.0 0.0 0.00 0.00 0.00 79 1013.1
20260506175101 52 0 0.0 0.0 0.00 0.00 0.00 78 1012.9
20260506174057 52 0 0.0 0.0 0.00 0.00 0.00 78 1012.7
20260506173054 53 0 0.0 0.0 0.00 0.00 0.00 77 1012.6
20260506172051 52 0 0.0 0.0 0.00 0.00 0.00 79 1012.6
20260506171048 52 0 0.0 0.0 0.00 0.00 0.00 79 1012.5
20260506170044 51 0 0.0 0.0 0.00 0.00 0.00 80 1012.4
20260506165041 52 0 0.0 0.0 0.00 0.00 0.00 81 1012.5
20260506164038 52 0 0.0 0.0 0.00 0.00 0.00 82 1012.4
20260506163035 52 0 0.0 0.0 0.00 0.00 0.00 81 1012.4
20260506162032 52 0 0.0 0.0 0.00 0.00 0.00 84 1012.4
20260506161028 52 0 0.0 0.0 0.00 0.00 0.00 84 1012.4
20260506160025 52 0 0.0 0.0 0.00 0.00 0.00 86 1012.3
20260506155022 52 0 0.0 0.0 0.00 0.00 0.00 86 1012.5
20260506154019 51 0 0.0 0.0 0.00 0.00 0.00 84 1012.4
20260506153015 51 0 0.0 0.0 0.00 0.00 0.00 87 1012.4
20260506152012 51 0 0.0 0.0 0.00 0.00 0.00 84 1012.4
20260506151009 51 0 0.0 0.0 0.00 0.00 0.00 86 1012.4
20260506150006 51 0 0.0 0.0 0.00 0.00 0.00 84 1012.5
20260506145002 51 0 0.0 0.0 0.00 0.00 0.00 86 1012.4
20260506143959 51 0 0.0 0.0 0.00 0.00 0.00 89 1012.5
20260506142956 51 0 0.0 0.0 0.00 0.00 0.00 86 1012.4
20260506141952 51 0 0.0 0.0 0.00 0.00 0.00 90 1012.4
20260506140949 51 0 0.0 0.0 0.00 0.00 0.00 89 1012.3
20260506135946 51 0 0.0 0.0 0.00 0.00 0.00 93 1012.3
20260506134943 50 0 0.0 0.0 0.00 0.00 0.00 93 1012.2
20260506133940 50 0 0.0 0.0 0.00 0.00 0.00 90 1012.4
20260506132936 50 0 0.0 0.0 0.00 0.00 0.00 90 1012.4
20260506131933 51 0 0.0 0.0 0.00 0.00 0.00 90 1012.3
20260506130930 51 0 0.0 0.0 0.00 0.00 0.00 90 1012.2
20260506125926 50 0 0.0 0.0 0.00 0.00 0.00 91 1012.1
20260506124923 51 0 0.0 0.0 0.00 0.00 0.00 91 1011.9
20260506123920 51 0 0.0 0.0 0.00 0.00 0.00 89 1011.6
20260506122917 51 0 0.0 0.0 0.00 0.00 0.00 89 1011.3
20260506121913 52 0 0.0 0.0 0.00 0.00 0.00 85 1011.0
20260506120910 54 0 0.0 0.0 0.00 0.00 0.00 85 1010.7
20260506115908 55 0 0.0 0.0 0.00 0.00 0.00 84 1010.4
20260506114904 55 0 0.0 0.0 0.00 0.00 0.00 82 1010.4
20260506113901 55 0 0.0 0.0 0.00 0.00 0.00 78 1010.2
20260506112857 56 0 0.0 0.0 0.00 0.00 0.00 72 1010.1
20260506111854 57 0 0.0 0.0 0.00 0.00 0.00 73 1010.1
20260506110851 57 0 0.0 0.0 0.00 0.00 0.00 77 1009.9
20260506105848 57 0 0.0 0.0 0.00 0.00 0.00 76 1010.1
20260506104844 58 0 0.0 0.0 0.00 0.00 0.00 76 1010.0
20260506103841 57 0 0.0 0.0 0.00 0.00 0.00 76 1010.1
20260506102838 57 0 0.0 0.0 0.00 0.00 0.00 72 1010.1
20260506101835 56 0 0.0 0.0 0.00 0.00 0.00 75 1010.0
20260506100831 57 0 0.0 0.0 0.00 0.00 0.00 75 1010.1
20260506095828 56 0 0.0 0.0 0.00 0.00 0.00 76 1010.1
20260506094825 56 0 0.0 0.0 0.00 0.00 0.00 77 1010.2
20260506093822 57 0 0.0 0.0 0.00 0.00 0.00 79 1010.3
20260506092818 57 0 0.0 0.0 0.00 0.00 0.00 80 1010.2
20260506091815 57 0 0.0 0.0 0.00 0.00 0.00 80 1010.0
20260506090812 57 0 0.0 0.0 0.00 0.00 0.00 79 1010.0
20260506085809 55 0 0.0 0.0 0.00 0.00 0.00 82 1009.9
20260506084805 56 0 0.0 0.0 0.00 0.00 0.00 77 1010.1
20260506083802 56 0 0.0 0.0 0.00 0.00 0.00 74 1010.1
20260506082759 56 0 0.0 0.0 0.00 0.00 0.00 75 1010.1
20260506081756 56 0 0.0 0.0 0.00 0.00 0.00 77 1010.0
20260506080752 56 0 0.0 0.0 0.00 0.00 0.00 77 1009.9
20260506072739 56 0 0.0 0.0 0.00 0.00 0.00 79 1010.1
20260506071736 55 0 0.0 0.0 0.00 0.00 0.00 79 1010.1
20260506070733 55 0 0.0 0.0 0.00 0.00 0.00 83 1010.1
20260506061717 54 0 0.0 0.0 0.00 0.00 0.00 85 1010.2
20260506060713 53 0 0.0 0.0 0.00 0.00 0.00 88 1010.0
20260506050654 52 0 0.0 0.0 0.00 0.00 0.00 81 1010.1
20260506044648 52 0 0.0 0.0 0.00 0.00 0.00 80 1010.1
20260506043644 52 0 0.0 0.0 0.00 0.00 0.00 81 1010.2
20260506042641 52 0 0.0 0.0 0.00 0.00 0.00 80 1010.2
20260506041638 52 0 0.0 0.0 0.00 0.00 0.00 80 1010.2
20260506040634 52 0 0.0 0.0 0.00 0.00 0.00 80 1010.3
20260506035631 53 0 0.0 0.0 0.00 0.00 0.00 82 1010.5
20260506034628 53 0 0.0 0.0 0.00 0.00 0.00 79 1010.7
20260506033625 52 0 0.0 0.0 0.00 0.00 0.00 80 1010.7
20260506032621 53 0 0.0 0.0 0.00 0.00 0.00 81 1010.9
20260506031618 53 0 0.0 0.0 0.00 0.00 0.00 81 1010.9
20260506030615 53 0 0.0 0.0 0.00 0.00 0.00 81 1011.0
20260506025612 53 0 0.0 0.0 0.00 0.00 0.00 81 1011.0
20260506024608 53 0 0.0 0.0 0.00 0.00 0.00 82 1011.0
20260506023605 53 0 0.0 0.0 0.00 0.00 0.00 81 1011.2
20260506022602 53 0 0.0 0.0 0.00 0.00 0.00 83 1011.3
20260506021559 53 0 0.0 0.0 0.00 0.00 0.00 83 1011.4
20260506021049 53 0 0.0 0.0 0.00 0.00 0.00 83 1011.4
20260506020555 53 0 0.0 0.0 0.00 0.00 0.00 83 1011.4
20260506015552 54 0 0.0 0.0 0.00 0.00 0.00 82 1011.5
20260506014549 54 0 0.0 0.0 0.00 0.00 0.00 78 1011.6
20260506013546 54 0 0.0 0.0 0.00 0.00 0.00 83 1011.6
20260506012542 54 0 0.0 0.0 0.00 0.00 0.00 82 1011.8
20260506011539 54 0 0.0 0.0 0.00 0.00 0.00 82 1011.8
20260506010536 54 0 0.0 0.0 0.00 0.00 0.00 80 1011.8
20260506005533 54 0 0.0 0.0 0.00 0.00 0.00 79 1011.9
20260506004529 54 0 0.0 0.0 0.00 0.00 0.00 82 1011.8
20260506003526 54 0 0.0 0.0 0.00 0.00 0.00 82 1012.1
20260506002523 55 0 0.0 0.0 0.00 0.00 0.00 79 1012.0
20260506001520 54 0 0.0 0.0 0.00 0.00 0.00 80 1012.3
20260506000516 55 0 0.0 0.0 0.00 0.00 0.00 79 1012.4
20260505235513 55 0 0.0 0.0 0.00 0.00 0.00 75 1012.3
20260505234510 55 0 0.0 0.0 0.00 0.00 0.00 76 1012.3
20260505233507 55 0 0.0 0.0 0.00 0.00 0.00 76 1012.4
20260505232503 55 0 0.0 0.0 0.00 0.00 0.00 76 1012.5
20260505231500 55 0 0.0 0.0 0.00 0.00 0.00 76 1012.6
20260505230457 55 0 0.0 0.0 0.00 0.00 0.00 77 1012.6
20260505225454 55 0 0.0 0.0 0.00 0.00 0.00 78 1012.6
20260505224450 55 0 0.0 0.0 0.00 0.00 0.00 78 1012.7
20260505223448 55 0 0.0 0.0 0.00 0.00 0.00 78 1012.5
20260505222444 55 0 0.0 0.0 0.00 0.00 0.00 75 1012.6
20260505221441 56 0 0.0 0.0 0.00 0.00 0.00 75 1012.5
20260505220437 56 0 0.0 0.0 0.00 0.00 0.00 74 1012.7
20260505215434 56 0 0.0 0.0 0.00 0.00 0.00 77 1012.9
20260505214431 56 0 0.0 0.0 0.00 0.00 0.00 77 1012.9
20260505213428 56 0 0.0 0.0 0.00 0.00 0.00 75 1013.0
20260505212424 56 0 0.0 0.0 0.00 0.00 0.00 74 1013.0
20260505211421 56 0 0.0 0.0 0.00 0.00 0.00 74 1013.1
20260505210418 56 0 0.0 0.0 0.00 0.00 0.00 73 1013.1
20260505205415 56 0 0.0 0.0 0.00 0.00 0.00 73 1013.1
20260505204411 56 0 0.0 0.0 0.00 0.00 0.00 72 1013.1
20260505203408 56 0 0.0 0.0 0.00 0.00 0.00 72 1013.1
20260505202405 56 0 0.0 0.0 0.00 0.00 0.00 71 1013.0
20260505201402 56 0 0.0 0.0 0.00 0.00 0.00 72 1013.0
20260505200358 56 0 0.0 0.0 0.00 0.00 0.00 71 1012.9
20260505195355 56 0 0.0 0.0 0.00 0.00 0.00 71 1012.8
20260505194352 57 0 0.0 0.0 0.00 0.00 0.00 72 1012.7
20260505193349 57 0 0.0 0.0 0.00 0.00 0.00 73 1012.6
20260505192345 57 0 0.0 0.0 0.00 0.00 0.00 72 1012.5